SCP
0 0 0 0 0 0 0 0 0 0 0 0 0 0 0 0 0 0 0 0 0 0 0 0 0 0 0 0 0 0 0 0 0 0 0 0 0 0 0 0 0 0 0 0
0 0 0 0 0 0 0 0 0 0 0 0 0 0 0 0 0 0 0 0 0 0 0 0 0 0 0 0 0 0 0 0 0 0 0 0 0 0 0 0 0 0 0 0
0 0 0 0 0 0 0 0 0 0 0 0 0 0 0 0 0 0 0 0 0 0 0 0 0 0 0 0 0 0 0 0 0 0 0 0 0 0 0 0 0 0 0 0
0 0 0 0 0 0 0 0 0 0 0 0 0 0 0 0 0 0 0 0 0 0 0 0 0 0 0 -0 0 0 0 0 0 0 0 0 0 0 -0 0 0 0 0 0
0 0 0 0 0 0 0 0 0 0 0 0 0 0 0 0 0 0 0 0 0 0 0 0 0 0 0 0 0 0 0 0 0 -0 -0 0 -0 -0 0 0 0 0 0 0
0 0 0 0 0 0 0 0 0 0 0 0 0 0 0 0 0 0 0 0 0 0 0 0 0 0 0 0 0 0 0 0 0 0 0 0 -0 0 0 0 0 0 0 0
0 0 0 0 0 0 0 0 0 0 0 0 0 0 0 0 0 0 0 0 0 0 0 -0 0 0 -0 0 0 0 0 0 0 0 0 0 0 0 0 0 0 0 0 0
0 0 0 0 0 0 0 0 0 0 0 0 0 0 0 0 0 0 0 0 0 0 0 0 0 0 0 0 0 0 -0 0 0 0 0 0 0 0 0 0 0 0 0 0
0 0 0 0 0 0 0 0 0 0 0 0 0 0 0 0 0 0 0 0 0 0 0 0 0 0 0 0 0 0 0 0 0 0 0 0 0 0 0 0 0 0 0 0
0 0 0 0 0 0 0 0 0 0 0 0 0 0 0 0 0 0 0 0 0 0 0 0 0 0 0 0 0 0 0 0 0 0 0 0 0 0 0 0 0 0 0 -0
0 0 0 0 0 0 0 0 0 0 0 0 0 0 0 0 0 0 0 0 0 0 0 0 0 0 0 0 0 0 0 0 0 0 0 0 0 0 0 0 0 0 0 -0
0 0 0 0 0 0 0 0 0 0 0 0 0 0 0 0 0 0 0 0 0 0 0 0 -0 0 0 0 0 0 0 0 -0 0 0 0 0 0 0 0 0 0 -0 -0
0 0 0 0 0 0 0 0 0 0 0 0 0 0 0 0 0 0 0 0 0 0 0 0 -0 0 0 0 0 0 0 -0 0 0 0 0 0 0 0 0 0 0 -0 0
0 0 0 0 0 0 0 0 0 0 0 0 0 0 0 0 0 0 -0 0 0 0 0 0 0 0 0 0 0 0 0 0 0 0 0 0 0 0 0 0 0 -0 -0 -0
0 0 0 0 0 0 0 0 0 0 0 0 0 0 0 0 0 -0 -0 -0 0 0 0 0 0 0 0 0 0 0 0 0 0 0 0 0 0 0 0 0 -0 -0 -0 -0
0 0 0 0 0 0 0 0 0 0 0 0 0 0 0 0 -0 -0 -0 -0 0 0 0 0 0 0 0 0 0 0 0 0 0 0 0 0 0 0 0 -0 -0 -0 -0 -0
0 0 0 0 0 0 0 0 0 0 0 0 0 0 0 0 0 -0 0 0 0 0 0 0 0 0 0 0 0 0 0 0 0 0 0 0 0 0 -0 -0 -0 -0 -0 -0
0 0 0 0 0 0 0 0 0 0 0 0 0 0 0 0 0 0 0 0 0 0 0 0 0 0 0 0 0 0 0 0 0 0 0 0 -0 -0 -0 0 -0 0 0 0
0 0 0 0 0 0 0 0 0 0 0 0 0 0 0 0 0 0 0 0 0 0 0 0 0 0 0 0 0 0 0 0 0 0 0 0 -0 -0 -0 0 0 0 0 0
0 0 0 0 0 0 0 0 0 0 0 0 0 0 0 0 0 0 0 0 0 0 -0 0 0 0 0 -0 0 0 0 0 0 0 0 0 -0 -0 0 0 0 0 0 0
0 0 0 0 0 0 0 0 0 0 0 0 0 0 0 0 0 0 0 0 0 0 -0 -0 -0 -0 -0 -0 -0 0 0 0 0 0 -0 0 0 0 0 0 0 0 0 0
0 0 0 0 0 0 0 0 0 0 0 0 0 0 0 0 0 0 0 -0 0 0 0 -0 -0 0 -0 -0 -0 0 0 0 0 0 -0 -0 0 0 0 0 0 0 0 0
0 0 0 0 0 0 0 0 0 0 0 0 0 0 0 0 0 -0 -0 -0 0 -0 0 0 0 -0 -0 -0 -0 0 0 0 0 0 0 -0 0 0 0 0 0 0 0 0
0 0 0 0 0 0 0 0 0 0 0 0 0 0 0 -0 -0 -0 -0 0 0 0 0 0 -0 -0 -0 -0 -0 0 0 0 0 0 -0 -0 0 0 0 0 0 0 0 0
0 0 0 0 0 0 0 0 0 0 0 0 0 -0 -0 -0 -0 -0 -0 0 0 0 0 0 -0 -0 -0 -0 -0 -0 0 0 0 0 0 -0 -0 0 0 0 0 0 0 0
0 0 0 0 0 0 0 0 0 0 0 0 -0 -0 -0 -0 -0 -0 0 0 0 -0 0 -0 -0 -0 -0 -0 -0 -0 0 -0 0 0 0 -0 -0 -0 0 0 0 0 0 0
0 0 0 0 0 0 0 0 0 0 0 0 -0 -0 -0 -0 -0 -0 0 0 0 0 0 -0 -0 -0 -0 -0 -0 -0 -0 0 0 0 0 0 -0 -0 -0 0 0 0 0 0
Wind_Speed_500mb
59 58 57 56 53 50 30 9 4 12 19 9 3 2 6 10 11 26 9 6 9 8 6 7 9 16 7 19 3 5 7 7 6 18 17 12 9 9 10 8 10 10 6 28
57 57 53 51 52 51 45 23 10 9 12 3 6 13 11 8 6 5 7 5 7 9 6 5 8 8 8 7 1 4 9 2 6 11 7 10 3 8 8 5 2 24 14 25
53 55 54 49 44 42 37 14 7 7 7 7 5 7 9 10 17 3 3 6 3 7 5 7 8 10 8 29 11 23 15 8 13 12 13 6 18 31 28 24 9 17 31 47
52 53 53 52 46 38 26 15 4 6 8 4 5 7 6 8 11 13 14 4 1 7 7 7 16 11 13 24 21 10 9 13 13 20 28 26 34 41 38 34 39 27 35 35
55 53 54 52 49 37 16 12 11 11 14 17 11 4 2 5 5 7 7 5 16 13 12 16 23 17 6 12 8 3 1 7 6 17 28 34 41 42 36 41 37 33 31 34
53 52 51 52 49 41 12 11 7 8 9 8 4 5 2 9 17 18 5 8 7 10 12 29 47 48 43 24 13 9 7 4 4 17 1 13 23 22 19 10 9 6 16 32
49 51 48 46 45 40 25 12 7 3 8 4 7 10 21 24 12 11 24 28 7 17 48 58 56 53 50 39 30 26 13 10 6 9 7 9 8 5 1 5 20 21 26 26
48 47 48 45 42 36 25 18 5 3 8 12 25 11 10 27 32 9 25 17 40 39 39 7 12 8 6 2 4 15 26 9 7 5 6 15 14 7 7 4 17 22 19 9
45 43 44 44 40 34 23 10 8 6 10 10 17 9 17 8 6 10 17 39 31 22 5 3 4 6 6 6 5 10 15 9 5 3 8 10 10 6 6 2 15 7 6 15
42 42 41 42 41 34 23 10 14 12 12 25 14 10 7 6 3 6 20 18 16 13 6 3 5 6 7 4 5 3 4 5 11 12 10 13 6 10 14 5 8 9 32 39
41 42 41 41 39 32 23 12 12 12 16 56 47 27 16 20 13 7 10 16 6 9 6 5 4 3 5 6 7 7 5 6 7 5 6 14 8 2 5 17 48 46 47 57
40 41 41 40 36 34 26 24 16 29 28 54 75 74 74 70 49 38 14 10 10 9 5 5 5 6 6 2 6 8 5 3 4 11 12 12 14 23 56 54 38 50 60 69
40 41 42 41 35 32 26 32 30 28 23 43 18 13 4 41 32 22 21 14 19 13 13 5 4 7 4 4 6 6 8 10 7 7 9 11 34 61 36 51 48 60 67 65
39 42 42 40 36 34 35 30 25 20 15 11 19 36 23 7 12 29 24 28 19 15 10 7 4 4 8 6 10 11 18 8 10 12 22 30 39 30 62 60 60 75 69 67
38 40 40 38 33 33 29 7 10 8 8 8 30 35 21 38 21 14 38 46 45 16 7 6 5 8 6 7 6 7 10 12 9 16 27 39 33 48 53 58 59 77 63 68
36 37 37 34 28 28 19 4 10 9 8 11 9 25 21 35 34 12 14 37 41 27 10 8 9 12 7 5 6 12 26 42 42 24 45 51 54 46 70 55 76 63 57 60
34 34 36 29 21 24 10 0 2 7 11 8 11 14 16 29 26 12 1 20 20 16 10 11 9 11 12 5 7 9 55 45 52 49 31 33 36 58 74 68 47 49 50 49
32 33 32 23 23 21 2 2 6 11 13 7 5 9 19 20 14 11 3 11 20 15 9 6 6 6 9 8 19 37 47 49 47 30 29 42 51 74 54 46 39 46 47 49
29 26 14 2 5 3 2 14 7 10 7 4 3 6 8 25 16 12 7 6 4 7 4 6 6 3 7 14 34 48 59 29 41 30 33 36 58 52 47 41 46 42 47 47
18 5 4 5 6 6 14 2 3 4 4 4 6 7 7 11 8 8 7 4 3 5 8 9 5 3 26 44 55 56 34 25 35 28 35 50 60 46 47 42 43 34 33 40
4 6 8 7 7 6 5 4 5 5 3 8 11 14 10 12 6 6 7 5 4 4 2 3 1 3 38 80 78 51 23 25 28 20 38 46 46 49 46 46 38 35 33 26
4 1 6 9 7 5 3 5 6 5 5 7 9 13 15 15 11 7 6 5 3 4 5 4 6 11 70 82 75 58 19 16 25 25 37 47 43 48 41 40 39 35 32 29
5 4 3 2 6 3 4 3 5 5 6 9 15 9 10 9 10 8 4 6 4 15 6 6 5 51 78 81 68 27 14 24 26 24 33 48 46 54 46 41 39 32 33 28
6 5 2 7 5 5 4 6 6 8 12 28 36 15 8 6 4 2 5 6 6 4 9 9 17 64 83 84 69 54 23 28 20 23 33 48 50 54 50 50 45 41 36 32
6 5 5 7 2 4 2 1 4 14 23 31 18 4 5 5 5 4 6 4 8 7 5 9 52 73 76 77 85 51 14 29 22 21 26 43 49 50 44 42 36 36 35 28
5 8 2 5 6 7 5 6 10 21 25 21 4 5 5 6 7 8 11 7 6 7 11 51 60 71 78 77 81 56 11 22 23 20 15 28 40 39 38 38 40 39 42 44
6 8 12 9 6 5 1 3 12 20 12 3 2 6 0 3 6 7 5 4 10 38 48 53 56 68 74 79 79 69 36 22 16 20 11 20 34 35 47 47 40 45 49 48
Wind_Direction_500mb
1 4 4 1 360 5 8 0 25 336 351 27 27 308 287 300 308 340 273 202 212 222 238 248 247 243 204 353 141 254 186 145 230 233 269 239 185 227 158 132 260 224 226 270
357 1 3 3 357 358 358 338 300 330 332 84 328 314 296 270 294 306 358 320 33 13 250 269 252 245 220 48 43 184 183 181 311 321 6 5 188 200 206 209 263 245 252 268
357 358 1 4 1 356 355 355 348 325 60 83 83 342 275 318 314 251 324 273 53 19 280 220 283 299 291 343 314 311 181 166 190 233 240 193 285 271 265 251 236 261 230 271
356 355 357 1 4 358 2 10 5 345 305 338 344 256 271 303 354 326 322 304 133 228 271 272 259 251 296 294 276 281 147 203 211 241 261 275 268 270 271 258 258 250 273 260
354 355 355 356 1 7 6 16 5 335 295 305 326 336 48 300 334 282 275 340 310 287 222 227 291 299 241 236 294 219 190 253 219 267 269 260 269 267 259 267 262 255 269 275
353 352 355 353 356 5 24 14 328 326 292 319 333 248 32 304 311 286 272 321 296 283 264 303 286 269 256 239 190 173 174 185 55 280 322 300 280 257 210 248 213 252 281 275
351 348 351 355 353 356 3 344 344 329 276 270 232 296 299 290 276 251 290 307 254 279 310 303 287 263 251 239 233 206 209 164 193 286 354 257 257 293 321 279 280 273 279 281
345 347 345 352 353 352 352 327 264 256 275 264 292 275 249 304 305 274 284 289 309 310 303 293 324 329 345 59 152 215 211 161 234 233 210 294 287 201 197 159 280 265 257 310
340 343 343 344 348 349 355 349 318 260 298 249 252 317 277 275 295 324 274 312 318 316 245 249 302 292 321 324 110 35 125 157 207 218 247 257 247 166 135 99 271 104 303 284
338 338 341 338 340 342 348 318 307 292 265 276 273 230 273 271 323 270 286 321 318 350 345 344 262 269 326 349 319 204 171 185 225 245 259 276 284 120 56 245 289 256 305 300
335 334 336 335 336 337 331 330 278 306 274 288 277 270 251 241 213 227 313 345 356 335 20 314 339 328 325 345 294 282 230 177 225 240 244 279 162 108 261 294 298 309 307 303
333 331 331 329 333 331 321 311 293 293 281 271 290 284 273 272 270 258 245 238 342 283 30 354 350 330 341 46 291 328 304 203 265 195 228 234 204 268 297 291 303 312 304 301
330 328 326 325 331 327 315 307 309 314 297 307 315 341 264 311 295 248 215 242 210 225 238 224 269 272 187 262 254 281 274 279 245 304 280 280 302 308 307 305 310 321 301 299
325 324 323 323 330 328 320 307 304 283 270 289 291 324 345 305 342 215 234 246 200 229 217 229 240 265 216 249 249 255 252 304 249 260 280 310 300 303 321 302 308 318 305 298
320 320 321 322 332 327 331 2 341 289 238 291 295 331 359 6 355 281 245 243 225 214 200 199 229 241 246 244 252 245 208 218 260 285 294 294 289 312 329 310 310 311 308 308
315 317 316 318 329 322 353 198 40 31 293 320 312 317 337 11 4 337 265 232 218 216 203 220 230 241 206 260 258 261 296 305 295 284 295 292 301 314 323 310 310 311 309 307
313 313 308 313 311 306 325 51 126 332 6 285 290 304 307 336 328 344 12 208 207 224 235 226 235 236 196 254 259 306 302 306 307 306 306 301 311 319 317 310 309 314 311 311
312 306 302 308 287 281 181 153 334 274 243 270 294 281 317 347 315 314 242 208 213 225 235 239 214 202 217 260 258 273 287 301 307 317 313 311 316 315 320 325 331 323 323 319
309 304 316 339 158 127 12 328 48 146 213 282 275 297 301 333 318 289 272 202 256 244 234 232 179 204 234 257 295 300 296 305 300 309 323 317 327 326 334 338 333 331 328 323
314 294 199 173 193 198 314 120 198 181 230 238 254 266 280 305 290 290 307 223 261 266 223 170 213 263 287 328 341 327 329 302 316 317 334 337 333 342 343 338 339 338 326 327
295 205 187 183 243 231 212 190 207 173 249 236 246 242 279 287 245 277 261 272 251 272 240 250 215 28 345 338 335 334 303 318 316 343 358 348 334 339 342 341 347 340 339 346
293 207 149 163 186 201 194 193 151 207 231 233 231 278 269 284 259 271 302 284 249 275 157 235 43 336 338 336 340 344 318 342 318 353 2 359 347 353 357 351 347 350 349 355
152 135 157 168 175 77 204 43 328 326 227 251 266 284 276 279 255 279 315 265 310 324 2 42 46 334 337 338 330 338 328 349 322 357 4 7 8 3 6 3 4 10 12 18
170 157 342 186 203 211 173 178 204 291 266 299 300 270 241 272 288 252 283 339 28 61 23 8 336 333 333 338 348 0 359 327 333 349 3 9 16 17 11 12 12 16 23 28
166 189 215 211 151 151 134 92 5 357 334 324 321 345 310 313 290 7 326 350 39 38 24 322 327 330 334 338 343 355 7 339 331 339 4 11 15 18 16 22 25 35 43 49
194 225 236 223 108 13 57 69 344 341 337 328 38 47 47 357 350 27 11 23 24 340 332 319 324 331 336 337 350 353 354 328 330 317 349 15 22 23 24 32 39 49 54 54
215 233 219 244 255 231 269 347 334 333 332 337 33 59 229 294 40 24 35 35 321 312 314 321 328 332 336 344 353 359 15 9 354 349 340 13 24 30 30 31 37 48 55 61
Wind_Speed_850mb
59 58 57 56 53 50 30 9 4 12 19 9 3 2 6 10 11 26 9 6 9 8 6 7 9 16 7 19 3 5 7 7 6 18 17 12 9 9 10 8 10 10 6 28
57 57 53 51 52 51 45 23 10 9 12 3 6 13 11 8 6 5 7 5 7 9 6 5 8 8 8 7 1 4 9 2 6 11 7 10 3 8 8 5 2 24 14 25
53 55 54 49 44 42 37 14 7 7 7 7 5 7 9 10 17 3 3 6 3 7 5 7 8 10 8 29 11 23 15 8 13 12 13 6 18 31 28 24 9 17 31 47
52 53 53 52 46 38 26 15 4 6 8 4 5 7 6 8 11 13 14 4 1 7 7 7 16 11 13 24 21 10 9 13 13 20 28 26 34 41 38 34 39 27 35 35
55 53 54 52 49 37 16 12 11 11 14 17 11 4 2 5 5 7 7 5 16 13 12 16 23 17 6 12 8 3 1 7 6 17 28 34 41 42 36 41 37 33 31 34
53 52 51 52 49 41 12 11 7 8 9 8 4 5 2 9 17 18 5 8 7 10 12 29 47 48 43 24 13 9 7 4 4 17 1 13 23 22 19 10 9 6 16 32
49 51 48 46 45 40 25 12 7 3 8 4 7 10 21 24 12 11 24 28 7 17 48 58 56 53 50 39 30 26 13 10 6 9 7 9 8 5 1 5 20 21 26 26
48 47 48 45 42 36 25 18 5 3 8 12 25 11 10 27 32 9 25 17 40 39 39 7 12 8 6 2 4 15 26 9 7 5 6 15 14 7 7 4 17 22 19 9
45 43 44 44 40 34 23 10 8 6 10 10 17 9 17 8 6 10 17 39 31 22 5 3 4 6 6 6 5 10 15 9 5 3 8 10 10 6 6 2 15 7 6 15
42 42 41 42 41 34 23 10 14 12 12 25 14 10 7 6 3 6 20 18 16 13 6 3 5 6 7 4 5 3 4 5 11 12 10 13 6 10 14 5 8 9 32 39
41 42 41 41 39 32 23 12 12 12 16 56 47 27 16 20 13 7 10 16 6 9 6 5 4 3 5 6 7 7 5 6 7 5 6 14 8 2 5 17 48 46 47 57
40 41 41 40 36 34 26 24 16 29 28 54 75 74 74 70 49 38 14 10 10 9 5 5 5 6 6 2 6 8 5 3 4 11 12 12 14 23 56 54 38 50 60 69
40 41 42 41 35 32 26 32 30 28 23 43 18 13 4 41 32 22 21 14 19 13 13 5 4 7 4 4 6 6 8 10 7 7 9 11 34 61 36 51 48 60 67 65
39 42 42 40 36 34 35 30 25 20 15 11 19 36 23 7 12 29 24 28 19 15 10 7 4 4 8 6 10 11 18 8 10 12 22 30 39 30 62 60 60 75 69 67
38 40 40 38 33 33 29 7 10 8 8 8 30 35 21 38 21 14 38 46 45 16 7 6 5 8 6 7 6 7 10 12 9 16 27 39 33 48 53 58 59 77 63 68
36 37 37 34 28 28 19 4 10 9 8 11 9 25 21 35 34 12 14 37 41 27 10 8 9 12 7 5 6 12 26 42 42 24 45 51 54 46 70 55 76 63 57 60
34 34 36 29 21 24 10 0 2 7 11 8 11 14 16 29 26 12 1 20 20 16 10 11 9 11 12 5 7 9 55 45 52 49 31 33 36 58 74 68 47 49 50 49
32 33 32 23 23 21 2 2 6 11 13 7 5 9 19 20 14 11 3 11 20 15 9 6 6 6 9 8 19 37 47 49 47 30 29 42 51 74 54 46 39 46 47 49
29 26 14 2 5 3 2 14 7 10 7 4 3 6 8 25 16 12 7 6 4 7 4 6 6 3 7 14 34 48 59 29 41 30 33 36 58 52 47 41 46 42 47 47
18 5 4 5 6 6 14 2 3 4 4 4 6 7 7 11 8 8 7 4 3 5 8 9 5 3 26 44 55 56 34 25 35 28 35 50 60 46 47 42 43 34 33 40
4 6 8 7 7 6 5 4 5 5 3 8 11 14 10 12 6 6 7 5 4 4 2 3 1 3 38 80 78 51 23 25 28 20 38 46 46 49 46 46 38 35 33 26
4 1 6 9 7 5 3 5 6 5 5 7 9 13 15 15 11 7 6 5 3 4 5 4 6 11 70 82 75 58 19 16 25 25 37 47 43 48 41 40 39 35 32 29
5 4 3 2 6 3 4 3 5 5 6 9 15 9 10 9 10 8 4 6 4 15 6 6 5 51 78 81 68 27 14 24 26 24 33 48 46 54 46 41 39 32 33 28
6 5 2 7 5 5 4 6 6 8 12 28 36 15 8 6 4 2 5 6 6 4 9 9 17 64 83 84 69 54 23 28 20 23 33 48 50 54 50 50 45 41 36 32
6 5 5 7 2 4 2 1 4 14 23 31 18 4 5 5 5 4 6 4 8 7 5 9 52 73 76 77 85 51 14 29 22 21 26 43 49 50 44 42 36 36 35 28
5 8 2 5 6 7 5 6 10 21 25 21 4 5 5 6 7 8 11 7 6 7 11 51 60 71 78 77 81 56 11 22 23 20 15 28 40 39 38 38 40 39 42 44
6 8 12 9 6 5 1 3 12 20 12 3 2 6 0 3 6 7 5 4 10 38 48 53 56 68 74 79 79 69 36 22 16 20 11 20 34 35 47 47 40 45 49 48
Wind_Direction_850mb
1 4 4 1 360 5 8 0 25 336 351 27 27 308 287 300 308 340 273 202 212 222 238 248 247 243 204 353 141 254 186 145 230 233 269 239 185 227 158 132 260 224 226 270
357 1 3 3 357 358 358 338 300 330 332 84 328 314 296 270 294 306 358 320 33 13 250 269 252 245 220 48 43 184 183 181 311 321 6 5 188 200 206 209 263 245 252 268
357 358 1 4 1 356 355 355 348 325 60 83 83 342 275 318 314 251 324 273 53 19 280 220 283 299 291 343 314 311 181 166 190 233 240 193 285 271 265 251 236 261 230 271
356 355 357 1 4 358 2 10 5 345 305 338 344 256 271 303 354 326 322 304 133 228 271 272 259 251 296 294 276 281 147 203 211 241 261 275 268 270 271 258 258 250 273 260
354 355 355 356 1 7 6 16 5 335 295 305 326 336 48 300 334 282 275 340 310 287 222 227 291 299 241 236 294 219 190 253 219 267 269 260 269 267 259 267 262 255 269 275
353 352 355 353 356 5 24 14 328 326 292 319 333 248 32 304 311 286 272 321 296 283 264 303 286 269 256 239 190 173 174 185 55 280 322 300 280 257 210 248 213 252 281 275
351 348 351 355 353 356 3 344 344 329 276 270 232 296 299 290 276 251 290 307 254 279 310 303 287 263 251 239 233 206 209 164 193 286 354 257 257 293 321 279 280 273 279 281
345 347 345 352 353 352 352 327 264 256 275 264 292 275 249 304 305 274 284 289 309 310 303 293 324 329 345 59 152 215 211 161 234 233 210 294 287 201 197 159 280 265 257 310
340 343 343 344 348 349 355 349 318 260 298 249 252 317 277 275 295 324 274 312 318 316 245 249 302 292 321 324 110 35 125 157 207 218 247 257 247 166 135 99 271 104 303 284
338 338 341 338 340 342 348 318 307 292 265 276 273 230 273 271 323 270 286 321 318 350 345 344 262 269 326 349 319 204 171 185 225 245 259 276 284 120 56 245 289 256 305 300
335 334 336 335 336 337 331 330 278 306 274 288 277 270 251 241 213 227 313 345 356 335 20 314 339 328 325 345 294 282 230 177 225 240 244 279 162 108 261 294 298 309 307 303
333 331 331 329 333 331 321 311 293 293 281 271 290 284 273 272 270 258 245 238 342 283 30 354 350 330 341 46 291 328 304 203 265 195 228 234 204 268 297 291 303 312 304 301
330 328 326 325 331 327 315 307 309 314 297 307 315 341 264 311 295 248 215 242 210 225 238 224 269 272 187 262 254 281 274 279 245 304 280 280 302 308 307 305 310 321 301 299
325 324 323 323 330 328 320 307 304 283 270 289 291 324 345 305 342 215 234 246 200 229 217 229 240 265 216 249 249 255 252 304 249 260 280 310 300 303 321 302 308 318 305 298
320 320 321 322 332 327 331 2 341 289 238 291 295 331 359 6 355 281 245 243 225 214 200 199 229 241 246 244 252 245 208 218 260 285 294 294 289 312 329 310 310 311 308 308
315 317 316 318 329 322 353 198 40 31 293 320 312 317 337 11 4 337 265 232 218 216 203 220 230 241 206 260 258 261 296 305 295 284 295 292 301 314 323 310 310 311 309 307
313 313 308 313 311 306 325 51 126 332 6 285 290 304 307 336 328 344 12 208 207 224 235 226 235 236 196 254 259 306 302 306 307 306 306 301 311 319 317 310 309 314 311 311
312 306 302 308 287 281 181 153 334 274 243 270 294 281 317 347 315 314 242 208 213 225 235 239 214 202 217 260 258 273 287 301 307 317 313 311 316 315 320 325 331 323 323 319
309 304 316 339 158 127 12 328 48 146 213 282 275 297 301 333 318 289 272 202 256 244 234 232 179 204 234 257 295 300 296 305 300 309 323 317 327 326 334 338 333 331 328 323
314 294 199 173 193 198 314 120 198 181 230 238 254 266 280 305 290 290 307 223 261 266 223 170 213 263 287 328 341 327 329 302 316 317 334 337 333 342 343 338 339 338 326 327
295 205 187 183 243 231 212 190 207 173 249 236 246 242 279 287 245 277 261 272 251 272 240 250 215 28 345 338 335 334 303 318 316 343 358 348 334 339 342 341 347 340 339 346
293 207 149 163 186 201 194 193 151 207 231 233 231 278 269 284 259 271 302 284 249 275 157 235 43 336 338 336 340 344 318 342 318 353 2 359 347 353 357 351 347 350 349 355
152 135 157 168 175 77 204 43 328 326 227 251 266 284 276 279 255 279 315 265 310 324 2 42 46 334 337 338 330 338 328 349 322 357 4 7 8 3 6 3 4 10 12 18
170 157 342 186 203 211 173 178 204 291 266 299 300 270 241 272 288 252 283 339 28 61 23 8 336 333 333 338 348 0 359 327 333 349 3 9 16 17 11 12 12 16 23 28
166 189 215 211 151 151 134 92 5 357 334 324 321 345 310 313 290 7 326 350 39 38 24 322 327 330 334 338 343 355 7 339 331 339 4 11 15 18 16 22 25 35 43 49
194 225 236 223 108 13 57 69 344 341 337 328 38 47 47 357 350 27 11 23 24 340 332 319 324 331 336 337 350 353 354 328 330 317 349 15 22 23 24 32 39 49 54 54
215 233 219 244 255 231 269 347 334 333 332 337 33 59 229 294 40 24 35 35 321 312 314 321 328 332 336 344 353 359 15 9 354 349 340 13 24 30 30 31 37 48 55 61